This is the latest recevied weather packets stored in our database for station/object WA4IKQ. If no packets are shown the sender has not sent any weather packets the latest 10 day(s).
| Time | Temp. | Humidity | Pressure | Rain* | Wind** | Luminosity | Snow |
|---|---|---|---|---|---|---|---|
| 1777302372 | 26.67° C | 69% | 1016.7 hPa | 0 mm | 3.58 m/s, 17° | - | - |
| 1777302329 | 26.67° C | 69% | 1016.7 hPa | 0 mm | 1.34 m/s, 37° | - | - |
| 1777302294 | 26.67° C | 69% | 1016.7 hPa | 0 mm | 1.34 m/s, 37° | - | - |
| 1777302073 | 26.67° C | 69% | 1016.7 hPa | 0 mm | 1.34 m/s, 37° | - | - |
| 1777301641 | 26.67° C | 70% | 1016.6 hPa | 0 mm | 2.68 m/s, 27° | - | - |
| 1777301473 | 26.67° C | 70% | 1016.6 hPa | 0 mm | 2.68 m/s, 27° | - | - |
| 1777301291 | 26.11° C | 71% | 1016.6 hPa | 0 mm | 2.24 m/s, 42° | - | - |
| 1777301252 | 26.11° C | 71% | 1016.6 hPa | 0 mm | 2.24 m/s, 42° | - | - |
| 1777301174 | 26.11° C | 71% | 1016.6 hPa | 0 mm | 2.24 m/s, 42° | - | - |
| 1777301041 | 26.11° C | 71% | 1016.6 hPa | 0 mm | 2.24 m/s, 350° | - | - |
| 1777300879 | 26.11° C | 71% | 1016.6 hPa | 0 mm | 2.24 m/s, 350° | - | - |
| 1777300706 | 26.11° C | 71% | 1016.6 hPa | 0 mm | 2.68 m/s, 354° | - | - |
| 1777300405 | 26.11° C | 73% | 1016.7 hPa | 0 mm | 4.47 m/s, 32° | - | - |
| 1777300272 | 26.11° C | 73% | 1016.7 hPa | 0 mm | 4.47 m/s, 32° | - | - |
| 1777300140 | 25.56° C | 74% | 1016.7 hPa | 0 mm | 3.58 m/s, 293° | - | - |
| 1777299972 | 25.56° C | 74% | 1016.7 hPa | 0 mm | 3.58 m/s, 293° | - | - |
| 1777299844 | 25.56° C | 75% | 1016.6 hPa | 0 mm | 1.79 m/s, 51° | - | - |
| 1777299672 | 25.56° C | 75% | 1016.6 hPa | 0 mm | 1.79 m/s, 51° | - | - |
| 1777299530 | 25.56° C | 75% | 1016.6 hPa | 0 mm | 4.47 m/s, 18° | - | - |
| 1777299373 | 25.56° C | 75% | 1016.6 hPa | 0 mm | 4.47 m/s, 18° | - | - |
| 1777299222 | 25.56° C | 75% | 1016.6 hPa | 0 mm | 3.13 m/s, 51° | - | - |
| 1777299076 | 25.56° C | 75% | 1016.6 hPa | 0 mm | 3.13 m/s, 51° | - | - |
| 1777298898 | 25.56° C | 76% | 1016.4 hPa | 0 mm | 2.24 m/s, 46° | - | - |
| 1777298773 | 25.56° C | 76% | 1016.4 hPa | 0 mm | 2.24 m/s, 46° | - | - |
| 1777298641 | 25.56° C | 76% | 1016.4 hPa | 0 mm | 2.24 m/s, 17° | - | - |
* Rain latest hour (hover to see other rain measurements)
** Current wind speed in m/s (hover to see current wind gust speed)